Grand Forks, ND

8:01 AM CDT on July 26, 2017 (GMT -0500)
Grand Forks International

Weather History for KGFK - July, 2013

Change the Weather History Date:

Tuesday, July 23, 2013

  Actual Average Record
Temperature  
Mean Temperature 62 °F 69 °F  
Max Temperature 74 °F 82 °F 94 °F (2007)
Min Temperature 50 °F 57 °F 45 °F (1953)
Degree Days  
Heating Degree Days 3 1  
Month to date heating degree days 9 24  
Since 1 June heating degree days 86 127  
Since 1 July heating degree days 9 24  
Cooling Degree Days 0 5  
Month to date cooling degree days 160 105  
Year to date cooling degree days 282 197  
Since 1 June cooling degree days 273 180  
Growing Degree Days 12 (Base 50)    
Moisture  
Dew Point 53 °F    
Average Humidity 71    
Maximum Humidity 96    
Minimum Humidity 46    
Precipitation  
Precipitation 0.00 in 0.09 in 1.13 in (2011)
Month to date precipitation 1.96 2.45  
Year to date precipitation 13.23 11.65  
Snow  
Snow 0.00 in 0.00 in - ()
Month to date snowfall 0.0 0.0  
Since 1 June snowfall 0.0 0.0  
Since 1 July snowfall 0.0 0.0  
Snow Depth 0.00 in    
Sea Level Pressure  
Sea Level Pressure 30.01 in    
Wind  
Wind Speed 3 mph (NW)    
Max Wind Speed 9 mph    
Max Gust Speed 12 mph    
Visibility 10 miles    
Events      
T = Trace of Precipitation, MM = Missing Value Source: NWS Daily Summary

Daily Weather History Graph

Daily Weather History Graph

Search for Another Location

Airport or City:

Trip Planner

Search our weather history database for the weather conditions in past years. The results will help you decide how hot, cold, wet, or windy it might be!

Date:

Astronomy

Jul. 23, 2013 Rise Set
Actual Time 5:54 AM CDT 9:15 PM CDT
Civil Twilight 5:16 AM CDT 9:53 PM CDT
Nautical Twilight 4:26 AM CDT 10:42 PM CDT
Astronomical Twilight 3:21 AM CDT 11:46 PM CDT
Moon 9:31 PM CDT (7/23) 7:14 AM CDT (7/23)
Length of Visible Light 16h 36m
Length of Day
15h 21m
Full, 99% of the Moon is Illuminated
Jul 23
Full
Jul 29
Last Quarter
Aug 6
New
Aug 14
First Quarter
Aug 20
Full

Hourly Weather History & Observations

Time (CDT) Temp. Dew Point Humidity Pressure Visibility Wind Dir Wind Speed Gust Speed Precip Events Conditions
12:53 AM 53.1 °F 51.1 °F 93% 29.95 in 10.0 mi WNW 4.6 mph - N/A   Clear
1:53 AM 53.1 °F 51.1 °F 93% 29.96 in 10.0 mi NW 4.6 mph - N/A   Clear
2:53 AM 53.1 °F 51.1 °F 93% 29.96 in 10.0 mi NW 4.6 mph - N/A   Clear
3:53 AM 51.1 °F 48.9 °F 92% 29.96 in 10.0 mi NW 4.6 mph - N/A   Clear
4:53 AM 50.0 °F 48.9 °F 96% 29.96 in 10.0 mi NNW 5.8 mph - N/A   Clear
5:53 AM 50.0 °F 48.9 °F 96% 29.98 in 10.0 mi NW 3.5 mph - N/A   Scattered Clouds
6:53 AM 51.1 °F 50.0 °F 96% 30.01 in 10.0 mi NW 4.6 mph - N/A   Mostly Cloudy
7:53 AM 55.0 °F 53.1 °F 93% 30.03 in 10.0 mi Calm Calm - N/A   Overcast
8:53 AM 57.9 °F 54.0 °F 87% 30.03 in 10.0 mi North 4.6 mph - N/A   Overcast
9:53 AM 61.0 °F 55.0 °F 81% 30.04 in 10.0 mi Calm Calm - N/A   Overcast
10:53 AM 63.0 °F 55.0 °F 75% 30.05 in 10.0 mi Calm Calm - N/A   Mostly Cloudy
11:53 AM 64.9 °F 53.1 °F 65% 30.06 in 10.0 mi Calm Calm - N/A   Mostly Cloudy
12:53 PM 68.0 °F 51.1 °F 55% 30.05 in 10.0 mi Calm Calm - N/A   Mostly Cloudy
1:53 PM 70.0 °F 52.0 °F 53% 30.05 in 10.0 mi Calm Calm - N/A   Mostly Cloudy
2:53 PM 72.0 °F 51.1 °F 48% 30.04 in 10.0 mi Variable 5.8 mph - N/A   Scattered Clouds
3:53 PM 73.0 °F 54.0 °F 51% 30.03 in 10.0 mi Calm Calm - N/A   Mostly Cloudy
4:53 PM 73.0 °F 51.1 °F 46% 30.02 in 10.0 mi ENE 6.9 mph - N/A   Scattered Clouds
5:53 PM 73.0 °F 52.0 °F 48% 30.00 in 10.0 mi Calm Calm - N/A   Scattered Clouds
6:53 PM 72.0 °F 51.1 °F 48% 29.99 in 10.0 mi NNE 4.6 mph - N/A   Mostly Cloudy
7:53 PM 70.0 °F 53.1 °F 55% 29.99 in 10.0 mi ENE 3.5 mph - N/A   Mostly Cloudy
8:53 PM 66.9 °F 55.9 °F 68% 30.00 in 10.0 mi Calm Calm - N/A   Mostly Cloudy
9:53 PM 62.1 °F 55.9 °F 80% 30.01 in 10.0 mi South 3.5 mph - N/A   Scattered Clouds
10:53 PM 61.0 °F 57.0 °F 87% 30.01 in 10.0 mi SSW 4.6 mph - N/A   Scattered Clouds
11:53 PM 59.0 °F 55.9 °F 90% 30.01 in 10.0 mi SW 3.5 mph - N/A   Scattered Clouds